Las Vegas, NV

10:23 PM PDT on March 22, 2017 (GMT -0700)
McCarran International

Weather History for KLAS - March, 2014

Change the Weather History Date:

Sunday, March 23, 2014

  Actual Average Record
Temperature  
Mean Temperature 67 °F 61 °F  
Max Temperature 80 °F 72 °F 89 °F (1940)
Min Temperature 54 °F 51 °F 32 °F (1938)
Degree Days  
Heating Degree Days 0 5  
Month to date heating degree days 70 154  
Since 1 July heating degree days 1456 1845  
Cooling Degree Days 2 1  
Month to date cooling degree days 18 15  
Year to date cooling degree days 21 16  
Growing Degree Days 16 (Base 50)    
Moisture  
Dew Point 18 °F    
Average Humidity 17    
Maximum Humidity 24    
Minimum Humidity 9    
Precipitation  
Precipitation 0.00 in 0.01 in 0.10 in (1992)
Month to date precipitation 0.00 0.37  
Year to date precipitation 0.30 1.67  
Snow  
Snow 0.00 in 0.00 in 0.00 in (2015)
Month to date snowfall 0.0 0.0  
Since 1 July snowfall 0.0 0.3  
Snow Depth 0.00 in    
Sea Level Pressure  
Sea Level Pressure 29.98 in    
Wind  
Wind Speed 4 mph (SSW)    
Max Wind Speed 12 mph    
Max Gust Speed 14 mph    
Visibility 10 miles    
Events      
T = Trace of Precipitation, MM = Missing Value Source: NWS Daily Summary

Daily Weather History Graph

Daily Weather History Graph

Search for Another Location

Airport or City:

Trip Planner

Search our weather history database for the weather conditions in past years. The results will help you decide how hot, cold, wet, or windy it might be!

Date:

Astronomy

Mar. 23, 2014 Rise Set
Actual Time 6:39 AM PDT 6:55 PM PDT
Civil Twilight 6:14 AM PDT 7:20 PM PDT
Nautical Twilight 5:44 AM PDT 7:50 PM PDT
Astronomical Twilight 5:13 AM PDT 8:21 PM PDT
Moon 1:07 AM PDT 11:34 AM PDT
Length of Visible Light 13h 06m
Length of Day
12h 15m
Waning Gibbous, 53% of the Moon is Illuminated
Mar 23
Waning Gibbous
Mar 23
Last Quarter
Mar 30
New
Apr 7
First Quarter
Apr 15
Full

Hourly Weather History & Observations

Time (PDT) Temp. Dew Point Humidity Pressure Visibility Wind Dir Wind Speed Gust Speed Precip Events Conditions
12:56 AM 64.0 °F 21.0 °F 19% 29.96 in 10.0 mi Calm Calm - N/A   Clear
1:56 AM 63.0 °F 19.9 °F 19% 29.97 in 10.0 mi Calm Calm - N/A   Clear
2:56 AM 61.0 °F 19.0 °F 20% 29.97 in 10.0 mi Calm Calm - N/A   Clear
3:56 AM 60.1 °F 19.0 °F 20% 29.98 in 10.0 mi South 3.5 mph - N/A   Clear
4:56 AM 59.0 °F 18.0 °F 20% 29.99 in 10.0 mi SSW 4.6 mph - N/A   Clear
5:56 AM 55.9 °F 19.0 °F 24% 30.00 in 10.0 mi SSW 6.9 mph - N/A   Clear
6:56 AM 55.0 °F 19.0 °F 24% 30.02 in 10.0 mi SW 6.9 mph - N/A   Clear
7:56 AM 59.0 °F 19.9 °F 22% 30.04 in 10.0 mi SSW 5.8 mph - N/A   Clear
8:56 AM 63.0 °F 16.0 °F 16% 30.05 in 10.0 mi South 3.5 mph - N/A   Clear
9:56 AM 64.9 °F 17.1 °F 16% 30.06 in 10.0 mi SSE 4.6 mph - N/A   Scattered Clouds
10:56 AM 68.0 °F 14.0 °F 12% 30.06 in 10.0 mi Calm Calm - N/A   Scattered Clouds
11:56 AM 69.1 °F 14.0 °F 12% 30.04 in 10.0 mi Variable 4.6 mph - N/A   Mostly Cloudy
12:56 PM 71.1 °F 15.1 °F 12% 30.01 in 10.0 mi SSW 4.6 mph - N/A   Mostly Cloudy
1:56 PM 75.0 °F 16.0 °F 11% 29.98 in 10.0 mi Variable 3.5 mph - N/A   Mostly Cloudy
2:56 PM 77.0 °F 17.1 °F 10% 29.95 in 10.0 mi Calm Calm - N/A   Mostly Cloudy
3:56 PM 78.1 °F 16.0 °F 10% 29.92 in 10.0 mi Calm Calm - N/A   Mostly Cloudy
4:56 PM 79.0 °F 17.1 °F 10% 29.91 in 10.0 mi WSW 3.5 mph - N/A   Mostly Cloudy
5:56 PM 78.1 °F 17.1 °F 10% 29.92 in 10.0 mi Calm Calm - N/A   Mostly Cloudy
6:56 PM 75.9 °F 18.0 °F 11% 29.92 in 10.0 mi Calm Calm - N/A   Mostly Cloudy
7:56 PM 73.9 °F 19.0 °F 13% 29.93 in 10.0 mi South 8.1 mph - N/A   Mostly Cloudy
8:56 PM 72.0 °F 19.9 °F 14% 29.96 in 10.0 mi SSW 8.1 mph - N/A   Mostly Cloudy
9:56 PM 70.0 °F 19.0 °F 14% 29.96 in 10.0 mi SW 10.4 mph - N/A   Mostly Cloudy
10:56 PM 68.0 °F 19.0 °F 15% 29.97 in 10.0 mi SW 10.4 mph - N/A   Mostly Cloudy
11:56 PM 66.0 °F 21.9 °F 19% 29.97 in 10.0 mi WSW 5.8 mph - N/A   Mostly Cloudy